User: anonymous
Location: Unspecified
(0.0000°N, 0.0000°E)
Time: 21:25:25
(UTC+00:00)
Language:

OPTUS D1 - Orbit

View from above orbital plane
View from above orbital plane
View from above satellite
View from above satellite

Ground track
Ground track

The orbit data is extracted from the following two-line orbital elements,

1 29495U 06043B   14114.17243133  .00000000  00000-0  10000-3 0  4514
2 29495 000.0387 063.8936 0003071 332.5030 037.7956 01.00268487 27654
Epoch (UTC): 24 April 2014 04:08:18
Eccentricity: 0.0003071
inclination: 0.0387°
perigee height: 35774 km
apogee height: 35800 km
right ascension of ascending node: 63.8936°
argument of perigee: 332.5030°
revolutions per day: 1.00268487
mean anomaly at epoch: 37.7956°
orbit number at epoch: 2765

The dashed part of the orbit path shows where the satellite is in the earth's shadow,  

DLR